| time (UTC) | temp F | wind direction | speed MPH | gust MPH | rain 1hr in | rain 24hr in | rain mn in | humidity % | barometer mb |
| 20260505225633 | 0 | 225 | 2.0 | 6.0 | 0.00 | 0.00 | 0.00 | 1004.3 | |
| 20260505224734 | 0 | 180 | 3.0 | 9.0 | 0.00 | 0.00 | 0.00 | 1004.3 | |
| 20260505223839 | 0 | 225 | 4.0 | 13.0 | 0.00 | 0.00 | 0.00 | 1004.2 | |
| 20260505222946 | 0 | 180 | 5.0 | 9.0 | 0.00 | 0.00 | 0.00 | 1003.9 | |
| 20260505222051 | 0 | 180 | 10.0 | 12.0 | 0.00 | 0.00 | 0.00 | 1004.0 | |
| 20260505221159 | 0 | 203 | 5.0 | 7.0 | 0.00 | 0.00 | 0.00 | 1004.0 | |
| 20260505220304 | 0 | 180 | 2.0 | 7.0 | 0.00 | 0.00 | 0.00 | 1003.8 | |
| 20260505215411 | 0 | 180 | 5.0 | 6.0 | 0.00 | 0.00 | 0.00 | 1004.0 | |
| 20260505214518 | 0 | 135 | 2.0 | 6.0 | 0.00 | 0.00 | 0.00 | 1003.9 | |
| 20260505213623 | 0 | 203 | 5.0 | 7.0 | 0.00 | 0.00 | 0.00 | 1004.0 | |
| 20260505212728 | 0 | 180 | 1.0 | 4.0 | 0.00 | 0.00 | 0.00 | 1003.9 | |
| 20260505211833 | 0 | 135 | 2.0 | 7.0 | 0.00 | 0.00 | 0.00 | 1003.9 | |
| 20260505210936 | 0 | 135 | 5.0 | 9.0 | 0.00 | 0.00 | 0.00 | 1003.8 | |
| 20260505210044 | 0 | 135 | 8.0 | 10.0 | 0.00 | 0.00 | 0.00 | 1003.8 | |
| 20260505205150 | 0 | 180 | 2.0 | 9.0 | 0.00 | 0.00 | 0.00 | 1003.9 | |
| 20260505204257 | 0 | 180 | 5.0 | 9.0 | 0.00 | 0.00 | 0.00 | 1003.8 | |
| 20260505203402 | 0 | 180 | 4.0 | 10.0 | 0.00 | 0.00 | 0.00 | 1003.8 | |
| 20260505202509 | 0 | 180 | 11.0 | 13.0 | 0.00 | 0.00 | 0.00 | 1003.7 | |
| 20260505201611 | 0 | 180 | 6.0 | 11.0 | 0.00 | 0.00 | 0.00 | 1003.7 | |
| 20260505200717 | 0 | 158 | 5.0 | 7.0 | 0.00 | 0.00 | 0.00 | 1003.7 | |
| 20260505195816 | 0 | 180 | 4.0 | 9.0 | 0.00 | 0.00 | 0.00 | 1003.6 | |
| 20260505194915 | 0 | 180 | 3.0 | 13.0 | 0.00 | 0.00 | 0.00 | 1003.7 | |
| 20260505194013 | 0 | 180 | 4.0 | 6.0 | 0.00 | 0.00 | 0.00 | 1003.7 | |
| 20260505193113 | 0 | 180 | 6.0 | 10.0 | 0.00 | 0.00 | 0.00 | 1003.5 | |
| 20260505192212 | 0 | 180 | 7.0 | 12.0 | 0.00 | 0.00 | 0.00 | 1003.4 | |
| 20260505191312 | 0 | 180 | 4.0 | 10.0 | 0.00 | 0.00 | 0.00 | 1003.4 | |
| 20260505190412 | 0 | 225 | 10.0 | 14.0 | 0.00 | 0.00 | 0.00 | 1003.2 | |
| 20260505185511 | 0 | 225 | 5.0 | 16.0 | 0.00 | 0.00 | 0.00 | 1003.0 | |
| 20260505184610 | 0 | 135 | 6.0 | 11.0 | 0.00 | 0.00 | 0.00 | 1002.9 | |
| 20260505183709 | 0 | 180 | 10.0 | 14.0 | 0.00 | 0.00 | 0.00 | 1002.8 | |
| 20260505182808 | 0 | 135 | 7.0 | 12.0 | 0.00 | 0.00 | 0.00 | 1002.7 | |
| 20260505181908 | 0 | 203 | 4.0 | 11.0 | 0.00 | 0.00 | 0.00 | 1002.9 | |
| 20260505181002 | 0 | 203 | 2.0 | 3.0 | 0.00 | 0.00 | 0.00 | 1003.1 | |
| 20260505175200 | 0 | 270 | 0.0 | 4.0 | 0.00 | 0.00 | 0.00 | 1003.1 | |
| 20260505174257 | 0 | 225 | 1.0 | 3.0 | 0.00 | 0.00 | 0.00 | 1003.0 | |
| 20260505173357 | 0 | 225 | 2.0 | 2.0 | 0.00 | 0.00 | 0.00 | 1003.0 | |
| 20260505172453 | 0 | 225 | 1.0 | 1.0 | 0.00 | 0.00 | 0.00 | 1002.9 | |
| 20260505171551 | 0 | 225 | 0.0 | 1.0 | 0.00 | 0.00 | 0.00 | 1002.8 | |
| 20260505170650 | 0 | 225 | 0.0 | 1.0 | 0.00 | 0.00 | 0.00 | 1002.6 | |
| 20260505165750 | 0 | 180 | 0.0 | 4.0 | 0.00 | 0.00 | 0.00 | 1002.6 | |
| 20260505164848 | 0 | 180 | 2.0 | 7.0 | 0.00 | 0.00 | 0.00 | 1002.4 | |
| 20260505163948 | 0 | 180 | 2.0 | 4.0 | 0.00 | 0.00 | 0.00 | 1002.5 | |
| 20260505163047 | 0 | 180 | 3.0 | 6.0 | 0.00 | 0.00 | 0.00 | 1002.6 | |
| 20260505162146 | 0 | 135 | 5.0 | 13.0 | 0.00 | 0.00 | 0.00 | 1002.6 | |
| 20260505161246 | 0 | 180 | 9.0 | 16.0 | 0.00 | 0.00 | 0.00 | 1002.6 | |
| 20260505160346 | 0 | 203 | 9.0 | 15.0 | 0.00 | 0.00 | 0.00 | 1002.5 | |
| 20260505152742 | 0 | 180 | 8.0 | 19.0 | 0.00 | 0.00 | 0.00 | 1002.2 | |
| 20260505151841 | 0 | 225 | 10.0 | 18.0 | 0.00 | 0.00 | 0.00 | 1002.4 | |
| 20260505150941 | 0 | 180 | 9.0 | 19.0 | 0.00 | 0.00 | 0.00 | 1002.5 | |
| 20260505140633 | 0 | 203 | 12.0 | 17.0 | 0.00 | 0.00 | 0.00 | 1003.3 | |
| 20260505124539 | 0 | 270 | 2.0 | 11.0 | 0.00 | 0.00 | 0.00 | 1003.9 | |
| 20260505123645 | 0 | 225 | 3.0 | 13.0 | 0.00 | 0.00 | 0.00 | 1004.1 | |
| 20260505122746 | 0 | 270 | 5.0 | 17.0 | 0.00 | 0.00 | 0.00 | 1004.3 | |
| 20260505121851 | 0 | 180 | 7.0 | 16.0 | 0.00 | 0.00 | 0.00 | 1004.5 | |
| 20260505120955 | 0 | 180 | 15.0 | 16.0 | 0.00 | 0.00 | 0.00 | 1004.6 | |
| 20260505120057 | 0 | 203 | 6.0 | 12.0 | 0.00 | 0.00 | 0.00 | 1004.5 | |
| 20260505115201 | 0 | 135 | 5.0 | 15.0 | 0.00 | 0.00 | 0.00 | 1004.5 | |
| 20260505114306 | 0 | 158 | 9.0 | 14.0 | 0.00 | 0.00 | 0.00 | 1004.8 | |
| 20260505113409 | 0 | 248 | 6.0 | 14.0 | 0.00 | 0.00 | 0.00 | 1004.7 | |
| 20260505112514 | 0 | 180 | 3.0 | 21.0 | 0.00 | 0.00 | 0.00 | 1004.9 | |
| 20260505111619 | 0 | 270 | 5.0 | 14.0 | 0.00 | 0.00 | 0.00 | 1004.8 | |
| 20260505110722 | 0 | 225 | 3.0 | 16.0 | 0.00 | 0.00 | 0.00 | 1005.1 | |
| 20260505101347 | 0 | 180 | 8.0 | 15.0 | 0.00 | 0.00 | 0.00 | 1005.6 | |
| 20260505100452 | 0 | 180 | 7.0 | 16.0 | 0.00 | 0.00 | 0.00 | 1005.6 | |
| 20260505095557 | 0 | 180 | 10.0 | 13.0 | 0.00 | 0.00 | 0.00 | 1005.6 | |
| 20260505094705 | 0 | 135 | 8.0 | 15.0 | 0.00 | 0.00 | 0.00 | 1005.7 | |
| 20260505093808 | 0 | 135 | 7.0 | 15.0 | 0.00 | 0.00 | 0.00 | 1005.9 | |
| 20260505092913 | 0 | 135 | 11.0 | 13.0 | 0.00 | 0.00 | 0.00 | 1005.8 | |
| 20260505092018 | 0 | 180 | 6.0 | 13.0 | 0.00 | 0.00 | 0.00 | 1006.1 | |
| 20260505091122 | 0 | 135 | 6.0 | 11.0 | 0.00 | 0.00 | 0.00 | 1006.2 | |
| 20260505090228 | 0 | 270 | 3.0 | 11.0 | 0.00 | 0.00 | 0.00 | 1006.1 | |
| 20260505085332 | 0 | 180 | 4.0 | 13.0 | 0.00 | 0.00 | 0.00 | 1006.1 | |
| 20260505084437 | 0 | 180 | 11.0 | 14.0 | 0.00 | 0.00 | 0.00 | 1006.3 | |
| 20260505083540 | 0 | 135 | 6.0 | 11.0 | 0.00 | 0.00 | 0.00 | 1006.4 | |
| 20260505082645 | 0 | 135 | 3.0 | 12.0 | 0.00 | 0.00 | 0.00 | 1006.4 | |
| 20260505081752 | 0 | 135 | 7.0 | 14.0 | 0.00 | 0.00 | 0.00 | 1006.6 | |
| 20260505080856 | 0 | 180 | 3.0 | 10.0 | 0.00 | 0.00 | 0.00 | 1006.7 | |
| 20260505080001 | 0 | 158 | 5.0 | 13.0 | 0.00 | 0.00 | 0.00 | 1007.1 | |
| 20260505075106 | 0 | 180 | 9.0 | 15.0 | 0.00 | 0.00 | 0.00 | 1006.9 | |
| 20260505074211 | 0 | 180 | 8.0 | 12.0 | 0.00 | 0.00 | 0.00 | 1006.9 | |
| 20260505073315 | 0 | 180 | 4.0 | 13.0 | 0.00 | 0.00 | 0.00 | 1007.1 | |
| 20260505072422 | 0 | 180 | 7.0 | 12.0 | 0.00 | 0.00 | 0.00 | 1007.2 | |
| 20260505071526 | 0 | 225 | 3.0 | 8.0 | 0.00 | 0.00 | 0.00 | 1007.4 | |
| 20260505070631 | 0 | 180 | 4.0 | 14.0 | 0.00 | 0.00 | 0.00 | 1007.6 | |
| 20260505065737 | 0 | 180 | 12.0 | 14.0 | 0.00 | 0.00 | 0.00 | 1007.6 | |
| 20260505064842 | 0 | 180 | 12.0 | 16.0 | 0.00 | 0.00 | 0.00 | 1007.5 | |
| 20260505063948 | 0 | 203 | 11.0 | 16.0 | 0.00 | 0.00 | 0.00 | 1007.6 | |
| 20260505063052 | 0 | 180 | 11.0 | 17.0 | 0.00 | 0.00 | 0.00 | 1007.5 | |
| 20260505062157 | 0 | 180 | 7.0 | 18.0 | 0.00 | 0.00 | 0.00 | 1007.5 | |
| 20260505061258 | 0 | 180 | 5.0 | 15.0 | 0.00 | 0.00 | 0.00 | 1007.5 | |
| 20260505060405 | 0 | 225 | 4.0 | 14.0 | 0.00 | 0.00 | 0.00 | 1007.6 | |
| 20260505055511 | 0 | 158 | 8.0 | 14.0 | 0.00 | 0.00 | 0.00 | 1007.7 | |
| 20260505054615 | 0 | 180 | 3.0 | 11.0 | 0.00 | 0.00 | 0.00 | 1007.7 | |
| 20260505053719 | 0 | 180 | 4.0 | 6.0 | 0.00 | 0.00 | 0.00 | 1007.8 | |
| 20260505052825 | 0 | 135 | 4.0 | 6.0 | 0.00 | 0.00 | 0.00 | 1008.1 | |
| 20260505051929 | 0 | 180 | 0.0 | 3.0 | 0.00 | 0.00 | 0.00 | 1008.5 | |
| 20260505051033 | 0 | 180 | 1.0 | 4.0 | 0.00 | 0.00 | 0.00 | 1008.9 | |
| 20260505050138 | 0 | 180 | 2.0 | 3.0 | 0.00 | 0.00 | 0.00 | 1009.3 | |
| 20260505041701 | 0 | 270 | 0.0 | 0.0 | 0.00 | 0.00 | 0.00 | 1009.9 | |
| 20260505040807 | 0 | 270 | 0.0 | 2.0 | 0.00 | 0.00 | 0.00 | 1009.9 | |
| 20260505035911 | 0 | 270 | 0.0 | 1.0 | 0.00 | 0.00 | 0.00 | 1010.0 | |
| 20260505035014 | 0 | 270 | 0.0 | 1.0 | 0.00 | 0.00 | 0.00 | 1009.9 | |
| 20260505034120 | 0 | 270 | 2.0 | 2.0 | 0.00 | 0.00 | 0.00 | 1010.0 | |
| 20260505033225 | 0 | 270 | 0.0 | 0.0 | 0.00 | 0.00 | 0.00 | 1010.1 | |
| 20260505032329 | 0 | 270 | 0.0 | 2.0 | 0.00 | 0.00 | 0.00 | 1010.2 | |
| 20260505031435 | 0 | 270 | 0.0 | 2.0 | 0.00 | 0.00 | 0.00 | 1010.1 | |
| 20260505030536 | 0 | 0 | 0.0 | 3.0 | 0.00 | 0.00 | 0.00 | 1010.1 | |
| 20260505025643 | 0 | 0 | 0.0 | 2.0 | 0.00 | 0.00 | 0.00 | 1010.2 | |
| 20260505024749 | 0 | 0 | 0.0 | 2.0 | 0.00 | 0.00 | 0.00 | 1010.2 | |
| 20260505023855 | 0 | 0 | 2.0 | 2.0 | 0.00 | 0.00 | 0.00 | 1010.5 | |
| 20260505023001 | 0 | 270 | 1.0 | 3.0 | 0.00 | 0.00 | 0.00 | 1010.4 | |
| 20260505022109 | 0 | 0 | 3.0 | 4.0 | 0.00 | 0.00 | 0.00 | 1010.5 | |
| 20260505021213 | 0 | 225 | 3.0 | 4.0 | 0.00 | 0.00 | 0.00 | 1010.3 | |
| 20260505020319 | 0 | 0 | 1.0 | 3.0 | 0.00 | 0.00 | 0.00 | 1010.5 | |
| 20260505015424 | 0 | 315 | 0.0 | 3.0 | 0.00 | 0.00 | 0.00 | 1010.4 | |
| 20260505014529 | 0 | 315 | 1.0 | 2.0 | 0.00 | 0.00 | 0.00 | 1010.4 | |
| 20260505013635 | 0 | 315 | 2.0 | 5.0 | 0.00 | 0.00 | 0.00 | 1010.4 | |
| 20260505012741 | 0 | 0 | 3.0 | 6.0 | 0.00 | 0.00 | 0.00 | 1009.9 | |
| 20260505011847 | 0 | 225 | 2.0 | 2.0 | 0.00 | 0.00 | 0.00 | 1010.1 | |
| 20260505010953 | 0 | 225 | 0.0 | 0.0 | 0.00 | 0.00 | 0.00 | 1010.3 | |
| 20260505010058 | 0 | 225 | 0.0 | 0.0 | 0.00 | 0.00 | 0.00 | 1010.2 | |
| 20260505005204 | 0 | 225 | 0.0 | 0.0 | 0.00 | 0.00 | 0.00 | 1010.2 | |
| 20260505004306 | 0 | 225 | 0.0 | 0.0 | 0.00 | 0.00 | 0.00 | 1010.2 | |
| 20260505003411 | 0 | 225 | 0.0 | 0.0 | 0.00 | 0.00 | 0.00 | 1010.4 | |
| 20260505002517 | 0 | 225 | 0.0 | 1.0 | 0.00 | 0.00 | 0.00 | 1010.6 | |
| 20260505001623 | 0 | 225 | 0.0 | 0.0 | 0.00 | 0.00 | 0.00 | 1010.8 | |
| 20260505000729 | 0 | 225 | 0.0 | 3.0 | 0.00 | 0.00 | 0.00 | 1010.9 | |
| 20260504235835 | 0 | 225 | 0.0 | 2.0 | 0.00 | 0.00 | 0.00 | 1011.0 | |
| 20260504234932 | 0 | 225 | 0.0 | 1.0 | 0.00 | 0.00 | 0.00 | 1011.2 | |
| 20260504234037 | 0 | 225 | 0.0 | 0.0 | 0.00 | 0.00 | 0.00 | 1011.2 | |
| 20260504233143 | 0 | 225 | 0.0 | 0.0 | 0.00 | 0.00 | 0.00 | 1011.3 | |
| 20260504232249 | 0 | 225 | 0.0 | 0.0 | 0.00 | 0.00 | 0.00 | 1011.5 | |
| 20260504231354 | 0 | 225 | 0.0 | 2.0 | 0.00 | 0.00 | 0.00 | 1011.4 | |
| 20260504230457 | 0 | 225 | 2.0 | 2.0 | 0.00 | 0.00 | 0.00 | 1011.5 |